ORBCOMM FM20

Last updated on Sun Jun 21 2026 00:03:16 GMT+0000 (Coordinated Universal Time)

1 25416U 98046D 26171.20858727 .00000332 00000+0 15516-3 0 9999 2 25416 44.9929 237.1557 0002400 260.0825 99.9753 14.38069327457221
UTC large
Height (km)
Speed (km/s)
/
Latitude / Longitude
Inclination (degrees)
Orbital Period (minutes)
Azimuth
Elevation
Range (km)
Doppler Factor

Next 0 passes for location: London (51.5072 / 0.1276)

No passes found over London.
ORBCOMM FM20